• In Austria
  • List of Countries
  • For 7 days
  • Water Temperature
  • Satellite Maps
  • Weather Map
  • News
  • Weather Widgets
  • user-avatar
    Login

    Hourly Weather Stepanakert

    Today, 24 May, Thursday

    Time Temperature Precipitation Wind Pressure Humidity
    00:00 +17°C° 0 mm 3 mps 695 mmHg 47%
    01:00 +16°C° 0 mm 3 mps 695 mmHg 45%
    02:00 +16°C° 0 mm 3 mps 695 mmHg 42%
    03:00 +16°C° 0 mm 2 mps 695 mmHg 40%
    04:00 +16°C° 0 mm 2 mps 695 mmHg 41%
    05:00 +17°C° 0 mm 2 mps 695 mmHg 42%
    06:00 +18°C° 0 mm 2 mps 695 mmHg 42%
    07:00 +20°C° 0 mm 2 mps 695 mmHg 38%
    08:00 +23°C° 0 mm 2 mps 695 mmHg 34%
    09:00 +25°C° 0 mm 2 mps 695 mmHg 30%
    10:00 +25°C° 0 mm 2 mps 695 mmHg 29%
    11:00 +26°C° 0 mm 2 mps 695 mmHg 29%
    12:00 +27°C° 0 mm 2 mps 694 mmHg 28%
    13:00 +27°C° 0 mm 2 mps 694 mmHg 29%
    14:00 +27°C° 0 mm 2 mps 693 mmHg 29%
    15:00 +27°C° 0 mm 2 mps 693 mmHg 29%
    16:00 +26°C° 0 mm 2 mps 693 mmHg 32%
    17:00 +25°C° 0 mm 2 mps 692 mmHg 35%
    18:00 +25°C° 0 mm 2 mps 692 mmHg 38%
    19:00 +23°C° 0 mm 2 mps 692 mmHg 41%
    20:00 +20°C° 0 mm 2 mps 691 mmHg 43%
    21:00 +18°C° 0 mm 3 mps 691 mmHg 45%
    22:00 +18°C° 0 mm 3 mps 691 mmHg 45%
    23:00 +18°C° 0 mm 2 mps 691 mmHg 44%

    Tomorrow, 25 May, Friday

    Time Temperature Precipitation Wind Pressure Humidity
    00:00 +17°C° 0 mm 2 mps 690 mmHg 44%
    01:00 +17°C° 0 mm 2 mps 690 mmHg 44%
    02:00 +17°C° 0 mm 2 mps 690 mmHg 43%
    03:00 +17°C° 0 mm 2 mps 690 mmHg 42%
    04:00 +17°C° 0 mm 2 mps 690 mmHg 44%
    05:00 +18°C° 0 mm 2 mps 690 mmHg 45%
    06:00 +19°C° 0 mm 2 mps 690 mmHg 46%
    07:00 +21°C° 0 mm 2 mps 691 mmHg 42%
    08:00 +23°C° 0 mm 2 mps 691 mmHg 38%
    09:00 +25°C° 0 mm 2 mps 691 mmHg 34%
    10:00 +26°C° 0.1 mm 2 mps 691 mmHg 33%
    11:00 +27°C° 0.1 mm 2 mps 691 mmHg 33%
    12:00 +28°C° 0.1 mm 3 mps 690 mmHg 33%
    13:00 +28°C° 0.3 mm 3 mps 690 mmHg 33%
    14:00 +28°C° 0.3 mm 2 mps 690 mmHg 34%
    15:00 +28°C° 0.3 mm 2 mps 689 mmHg 35%
    16:00 +28°C° 0.3 mm 2 mps 689 mmHg 39%
    17:00 +27°C° 0.3 mm 2 mps 689 mmHg 44%
    18:00 +26°C° 0.3 mm 1 mps 689 mmHg 48%
    19:00 +24°C° 0.1 mm 2 mps 689 mmHg 51%
    20:00 +23°C° 0.1 mm 2 mps 689 mmHg 54%
    21:00 +20°C° 0.1 mm 2 mps 689 mmHg 57%
    22:00 +20°C° 0 mm 2 mps 689 mmHg 57%
    23:00 +19°C° 0 mm 2 mps 689 mmHg 58%

    Day after tomorrow, 26 May, Saturday

    Time Temperature Precipitation Wind Pressure Humidity
    00:00 +19°C° 0 mm 2 mps 689 mmHg 58%
    01:00 +19°C° 0 mm 2 mps 689 mmHg 58%
    02:00 +18°C° 0 mm 2 mps 689 mmHg 57%
    03:00 +18°C° 0 mm 2 mps 689 mmHg 57%
    04:00 +19°C° 0 mm 2 mps 689 mmHg 57%
    05:00 +19°C° 0 mm 2 mps 690 mmHg 56%
    06:00 +20°C° 0 mm 2 mps 690 mmHg 56%
    07:00 +23°C° 0 mm 2 mps 690 mmHg 50%
    08:00 +25°C° 0 mm 2 mps 691 mmHg 45%
    09:00 +27°C° 0 mm 2 mps 691 mmHg 39%
    10:00 +27°C° 0 mm 2 mps 691 mmHg 37%
    11:00 +28°C° 0 mm 2 mps 691 mmHg 36%
    12:00 +29°C° 0 mm 3 mps 691 mmHg 34%
    13:00 +29°C° 0.1 mm 3 mps 691 mmHg 35%
    14:00 +30°C° 0.1 mm 2 mps 691 mmHg 35%
    15:00 +30°C° 0.1 mm 2 mps 691 mmHg 35%
    16:00 +29°C° 0.3 mm 2 mps 691 mmHg 40%
    17:00 +28°C° 0.3 mm 2 mps 691 mmHg 45%
    18:00 +27°C° 0.3 mm 2 mps 691 mmHg 50%
    19:00 +25°C° 0 mm 2 mps 691 mmHg 55%
    20:00 +23°C° 0 mm 2 mps 691 mmHg 60%
    21:00 +20°C° 0 mm 2 mps 692 mmHg 66%
    22:00 +20°C° 0.1 mm 2 mps 692 mmHg 66%
    23:00 +19°C° 0.1 mm 2 mps 692 mmHg 67%

    27 May, Sunday

    Time Temperature Precipitation Wind Pressure Humidity
    00:00 +19°C° 0.1 mm 2 mps 693 mmHg 68%
    01:00 +18°C° 0.2 mm 2 mps 693 mmHg 70%
    02:00 +18°C° 0.2 mm 2 mps 693 mmHg 72%
    03:00 +17°C° 0.2 mm 2 mps 693 mmHg 74%
    04:00 +18°C° 0 mm 3 mps 694 mmHg 73%
    05:00 +18°C° 0 mm 3 mps 694 mmHg 72%
    06:00 +18°C° 0 mm 4 mps 695 mmHg 71%
    07:00 +19°C° 0 mm 4 mps 695 mmHg 68%
    08:00 +19°C° 0 mm 5 mps 696 mmHg 64%
    09:00 +20°C° 0 mm 6 mps 696 mmHg 61%
    10:00 +20°C° 0.1 mm 6 mps 697 mmHg 61%
    11:00 +20°C° 0.1 mm 6 mps 697 mmHg 62%
    12:00 +20°C° 0.1 mm 6 mps 697 mmHg 62%
    13:00 +20°C° 0.1 mm 6 mps 697 mmHg 63%
    14:00 +19°C° 0.1 mm 5 mps 697 mmHg 63%
    15:00 +19°C° 0.1 mm 5 mps 697 mmHg 63%
    16:00 +19°C° 0.1 mm 5 mps 697 mmHg 66%
    17:00 +18°C° 0.1 mm 4 mps 697 mmHg 68%
    18:00 +17°C° 0.1 mm 4 mps 697 mmHg 70%
    19:00 +16°C° 0 mm 3 mps 698 mmHg 73%
    20:00 +14°C° 0 mm 3 mps 698 mmHg 75%
    21:00 +14°C° 0 mm 2 mps 698 mmHg 78%
    22:00 +14°C° 0 mm 2 mps 698 mmHg 78%
    23:00 +14°C° 0 mm 1 mps 698 mmHg 78%

    28 May, Monday

    Time Temperature Precipitation Wind Pressure Humidity
    00:00 +13°C° 0 mm 1 mps 698 mmHg 78%
    01:00 +13°C° 0 mm 1 mps 698 mmHg 78%
    02:00 +13°C° 0 mm 1 mps 698 mmHg 78%
    03:00 +12°C° 0 mm 1 mps 698 mmHg 78%
    04:00 +13°C° 0 mm 1 mps 698 mmHg 76%
    05:00 +14°C° 0 mm 1 mps 698 mmHg 73%
    06:00 +14°C° 0 mm 0 mps 698 mmHg 70%
    07:00 +18°C° 0 mm 1 mps 698 mmHg 65%
    08:00 +18°C° 0 mm 2 mps 698 mmHg 60%
    09:00 +20°C° 0 mm 2 mps 698 mmHg 54%
    10:00 +21°C° 0 mm 2 mps 697 mmHg 51%
    11:00 +24°C° 0 mm 2 mps 697 mmHg 48%
    12:00 +25°C° 0 mm 3 mps 696 mmHg 46%
    13:00 +25°C° 0 mm 3 mps 696 mmHg 45%
    14:00 +26°C° 0 mm 3 mps 695 mmHg 44%
    15:00 +26°C° 0 mm 3 mps 695 mmHg 44%
    16:00 +26°C° 0.1 mm 2 mps 695 mmHg 47%
    17:00 +25°C° 0.1 mm 2 mps 694 mmHg 50%
    18:00 +24°C° 0.1 mm 2 mps 694 mmHg 53%
    19:00 +23°C° 0 mm 2 mps 694 mmHg 58%
    20:00 +20°C° 0 mm 2 mps 694 mmHg 63%
    21:00 +19°C° 0 mm 1 mps 694 mmHg 68%
    22:00 +19°C° 0 mm 1 mps 694 mmHg 69%
    23:00 +19°C° 0 mm 1 mps 694 mmHg 69%

    29 May, Tuesday

    Time Temperature Precipitation Wind Pressure Humidity
    00:00 +18°C° 0 mm 1 mps 694 mmHg 70%
    01:00 +18°C° 0 mm 1 mps 693 mmHg 70%
    02:00 +18°C° 0 mm 1 mps 693 mmHg 71%
    03:00 +16°C° 0 mm 1 mps 693 mmHg 72%
    04:00 +18°C° 0 mm 1 mps 693 mmHg 70%
    05:00 +19°C° 0 mm 1 mps 693 mmHg 68%
    06:00 +18°C° 0 mm 0 mps 694 mmHg 66%
    07:00 +21°C° 0 mm 1 mps 694 mmHg 60%
    08:00 +23°C° 0 mm 2 mps 694 mmHg 55%
    09:00 +24°C° 0 mm 3 mps 694 mmHg 50%
    10:00 +25°C° 0 mm 3 mps 694 mmHg 48%
    11:00 +26°C° 0 mm 4 mps 694 mmHg 47%
    12:00 +27°C° 0 mm 5 mps 694 mmHg 45%
    13:00 +26°C° 0.1 mm 5 mps 694 mmHg 47%
    14:00 +26°C° 0.1 mm 5 mps 693 mmHg 48%
    15:00 +26°C° 0.1 mm 6 mps 693 mmHg 50%
    16:00 +23°C° 0.3 mm 6 mps 693 mmHg 54%
    17:00 +21°C° 0.3 mm 5 mps 693 mmHg 58%
    18:00 +20°C° 0.3 mm 5 mps 693 mmHg 63%
    19:00 +19°C° 0 mm 4 mps 693 mmHg 66%
    20:00 +17°C° 0 mm 4 mps 694 mmHg 70%
    21:00 +16°C° 0 mm 3 mps 694 mmHg 74%
    22:00 +16°C° 0 mm 2 mps 694 mmHg 76%
    23:00 +16°C° 0 mm 2 mps 694 mmHg 77%
    Show more